When you browse on this site, cookies collect data to enhance your experience and personalize the content and advertising you see.
Visit our Privacy Policy to learn more. By continuing to use the site, you agree to this use of cookies and data.
  • In Hungary
  • List of Countries
  • For 7 days
  • Water Temperature
  • Satellite Maps
  • Weather Map
  • News
  • Weather Widgets
  • user-avatar
    Login

    Hourly Weather Libiąż

    Today, 20 January, Sunday

    Time Temperature Precipitation Wind Pressure Humidity
    00:00 -6°C° 0 mm 1 mps 738 mmHg 77%
    01:00 -4°C° 0 mm 1 mps 738 mmHg 73%
    02:00 -4°C° 0 mm 1 mps 737 mmHg 73%
    03:00 -4°C° 0 mm 1 mps 737 mmHg 73%
    04:00 -4°C° 0 mm 1 mps 737 mmHg 73%
    05:00 -4°C° 0 mm 1 mps 737 mmHg 72%
    06:00 -4°C° 0 mm 1 mps 736 mmHg 72%
    07:00 -4°C° 0 mm 1 mps 736 mmHg 69%
    08:00 -4°C° 0 mm 1 mps 736 mmHg 68%
    09:00 -3°C° 0 mm 1 mps 736 mmHg 66%
    10:00 -2°C° 0 mm 1 mps 736 mmHg 64%
    11:00 -2°C° 0 mm 1 mps 736 mmHg 61%
    12:00 -1°C° 0 mm 1 mps 736 mmHg 59%
    13:00 0°C° 0 mm 1 mps 736 mmHg 57%
    14:00 -1°C° 0 mm 1 mps 736 mmHg 61%
    15:00 -2°C° 0 mm 1 mps 736 mmHg 65%
    16:00 -2°C° 0 mm 1 mps 736 mmHg 69%
    17:00 -3°C° 0 mm 1 mps 736 mmHg 71%
    18:00 -3°C° 0 mm 1 mps 737 mmHg 74%
    19:00 -4°C° 0 mm 1 mps 737 mmHg 76%
    20:00 -5°C° 0 mm 0 mps 737 mmHg 76%
    21:00 -5°C° 0 mm 0 mps 738 mmHg 76%
    22:00 -5°C° 0 mm 0 mps 738 mmHg 76%
    23:00 -5°C° 0 mm 0 mps 739 mmHg 76%

    Tomorrow, 21 January, Monday

    Time Temperature Precipitation Wind Pressure Humidity
    00:00 -5°C° 0 mm 0 mps 739 mmHg 76%
    01:00 -6°C° 0 mm 0 mps 739 mmHg 76%
    02:00 -6°C° 0 mm 0 mps 739 mmHg 76%
    03:00 -6°C° 0 mm 0 mps 739 mmHg 76%
    04:00 -6°C° 0 mm 0 mps 739 mmHg 76%
    05:00 -6°C° 0 mm 0 mps 740 mmHg 75%
    06:00 -6°C° 0 mm 0 mps 740 mmHg 75%
    07:00 -6°C° 0 mm 0 mps 740 mmHg 75%
    08:00 -6°C° 0 mm 0 mps 740 mmHg 72%
    09:00 -5°C° 0 mm 0 mps 741 mmHg 69%
    10:00 -4°C° 0 mm 0 mps 741 mmHg 65%
    11:00 -3°C° 0 mm 0 mps 741 mmHg 63%
    12:00 -2°C° 0 mm 0 mps 740 mmHg 61%
    13:00 -1°C° 0 mm 0 mps 740 mmHg 59%
    14:00 -2°C° 0 mm 0 mps 740 mmHg 63%
    15:00 -3°C° 0 mm 0 mps 740 mmHg 66%
    16:00 -2°C° 0 mm 1 mps 740 mmHg 70%
    17:00 -3°C° 0 mm 1 mps 740 mmHg 71%
    18:00 -3°C° 0 mm 1 mps 739 mmHg 73%
    19:00 -3°C° 0 mm 1 mps 739 mmHg 74%
    20:00 -4°C° 0 mm 1 mps 739 mmHg 74%
    21:00 -4°C° 0 mm 1 mps 739 mmHg 74%
    22:00 -4°C° 0 mm 1 mps 739 mmHg 73%
    23:00 -4°C° 0 mm 1 mps 739 mmHg 73%

    Day after tomorrow, 22 January, Tuesday

    Time Temperature Precipitation Wind Pressure Humidity
    00:00 -6°C° 0 mm 1 mps 739 mmHg 73%
    01:00 -6°C° 0 mm 1 mps 738 mmHg 72%
    02:00 -6°C° 0 mm 1 mps 738 mmHg 72%
    03:00 -6°C° 0 mm 1 mps 737 mmHg 72%
    04:00 -6°C° 0 mm 1 mps 737 mmHg 72%
    05:00 -6°C° 0 mm 1 mps 737 mmHg 72%
    06:00 -6°C° 0 mm 1 mps 736 mmHg 73%
    07:00 -6°C° 0 mm 1 mps 736 mmHg 73%
    08:00 -4°C° 0 mm 1 mps 736 mmHg 70%
    09:00 -3°C° 0 mm 1 mps 736 mmHg 67%
    10:00 -2°C° 0 mm 1 mps 736 mmHg 64%
    11:00 -2°C° 0 mm 1 mps 735 mmHg 61%
    12:00 -1°C° 0 mm 1 mps 734 mmHg 59%
    13:00 0°C° 0 mm 1 mps 734 mmHg 56%
    14:00 0°C° 0 mm 1 mps 733 mmHg 60%
    15:00 -1°C° 0 mm 1 mps 733 mmHg 64%
    16:00 -4°C° 0 mm 2 mps 732 mmHg 68%
    17:00 -4°C° 0 mm 2 mps 732 mmHg 69%
    18:00 -5°C° 0 mm 2 mps 731 mmHg 70%
    19:00 -5°C° 0 mm 2 mps 731 mmHg 71%
    20:00 -6°C° 0 mm 2 mps 731 mmHg 73%
    21:00 -6°C° 0 mm 2 mps 730 mmHg 75%
    22:00 -6°C° 0 mm 2 mps 730 mmHg 77%
    23:00 -6°C° 0 mm 2 mps 729 mmHg 77%

    23 January, Wednesday

    Time Temperature Precipitation Wind Pressure Humidity
    00:00 -6°C° 0 mm 2 mps 729 mmHg 77%
    01:00 -6°C° 0 mm 2 mps 728 mmHg 76%
    02:00 -6°C° 0 mm 2 mps 728 mmHg 76%
    03:00 -6°C° 0 mm 2 mps 727 mmHg 75%
    04:00 -8°C° 0 mm 3 mps 727 mmHg 75%
    05:00 -7°C° 0 mm 3 mps 726 mmHg 77%
    06:00 -7°C° 0 mm 3 mps 726 mmHg 79%
    07:00 -7°C° 0 mm 3 mps 726 mmHg 81%
    08:00 -7°C° 0 mm 3 mps 726 mmHg 81%
    09:00 -6°C° 0 mm 3 mps 726 mmHg 81%
    10:00 -5°C° 0 mm 3 mps 726 mmHg 81%
    11:00 -4°C° 0 mm 3 mps 726 mmHg 80%
    12:00 -4°C° 0 mm 3 mps 726 mmHg 79%
    13:00 -2°C° 0 mm 3 mps 725 mmHg 78%
    14:00 -2°C° 0 mm 2 mps 725 mmHg 81%
    15:00 -2°C° 0 mm 2 mps 725 mmHg 85%
    16:00 -2°C° 0 mm 2 mps 725 mmHg 89%
    17:00 -3°C° 0 mm 2 mps 725 mmHg 90%
    18:00 -3°C° 0 mm 2 mps 726 mmHg 92%
    19:00 -1°C° 0 mm 1 mps 726 mmHg 94%
    20:00 -1°C° 0.1 mm 1 mps 726 mmHg 94%
    21:00 -1°C° 0.1 mm 1 mps 726 mmHg 95%
    22:00 -2°C° 0.1 mm 0 mps 726 mmHg 95%
    23:00 -2°C° 0.2 mm 0 mps 726 mmHg 95%

    24 January, Thursday

    Time Temperature Precipitation Wind Pressure Humidity
    00:00 -2°C° 0.2 mm 0 mps 726 mmHg 95%
    01:00 -2°C° 0.2 mm 0 mps 726 mmHg 96%
    02:00 -2°C° 0.2 mm 0 mps 726 mmHg 96%
    03:00 -2°C° 0.2 mm 0 mps 726 mmHg 96%
    04:00 -2°C° 0.2 mm 0 mps 726 mmHg 96%
    05:00 -1°C° 0.3 mm 1 mps 727 mmHg 95%
    06:00 -1°C° 0.3 mm 1 mps 727 mmHg 95%
    07:00 -1°C° 0.3 mm 1 mps 727 mmHg 95%
    08:00 0°C° 0.3 mm 1 mps 727 mmHg 94%
    09:00 -2°C° 0.3 mm 2 mps 728 mmHg 94%
    10:00 -2°C° 0.3 mm 2 mps 728 mmHg 93%
    11:00 -2°C° 0.2 mm 2 mps 728 mmHg 93%
    12:00 -1°C° 0.2 mm 2 mps 728 mmHg 92%
    13:00 -1°C° 0.2 mm 2 mps 728 mmHg 92%
    14:00 -1°C° 0.1 mm 2 mps 728 mmHg 93%
    15:00 -1°C° 0.1 mm 2 mps 728 mmHg 93%
    16:00 -2°C° 0.1 mm 2 mps 728 mmHg 93%
    17:00 -2°C° 0.1 mm 2 mps 729 mmHg 94%
    18:00 0°C° 0.1 mm 1 mps 729 mmHg 95%
    19:00 0°C° 0.1 mm 1 mps 729 mmHg 95%
    20:00 0°C° 0 mm 1 mps 730 mmHg 95%
    21:00 0°C° 0 mm 1 mps 730 mmHg 95%
    22:00 -2°C° 0 mm 2 mps 730 mmHg 95%
    23:00 -2°C° 0.1 mm 2 mps 730 mmHg 95%

    25 January, Friday

    Time Temperature Precipitation Wind Pressure Humidity
    00:00 -2°C° 0.1 mm 2 mps 731 mmHg 95%
    01:00 -2°C° 0.1 mm 2 mps 731 mmHg 95%
    02:00 -2°C° 0.1 mm 2 mps 731 mmHg 94%
    03:00 -2°C° 0.1 mm 2 mps 731 mmHg 94%
    04:00 -2°C° 0.1 mm 2 mps 731 mmHg 94%
    05:00 -2°C° 0.1 mm 2 mps 731 mmHg 94%
    06:00 -2°C° 0.1 mm 2 mps 731 mmHg 93%
    07:00 -2°C° 0.1 mm 2 mps 732 mmHg 93%
    08:00 -2°C° 0.1 mm 3 mps 732 mmHg 93%
    09:00 -2°C° 0.1 mm 3 mps 732 mmHg 92%
    10:00 -2°C° 0.1 mm 3 mps 733 mmHg 92%
    11:00 -1°C° 0.2 mm 3 mps 733 mmHg 91%
    12:00 -1°C° 0.2 mm 3 mps 733 mmHg 91%
    13:00 -1°C° 0.2 mm 3 mps 733 mmHg 91%
    14:00 -1°C° 0.2 mm 3 mps 733 mmHg 91%
    15:00 -1°C° 0.2 mm 3 mps 734 mmHg 92%
    16:00 -2°C° 0.2 mm 3 mps 734 mmHg 92%
    17:00 -2°C° 0.1 mm 3 mps 734 mmHg 92%
    18:00 -2°C° 0.1 mm 3 mps 735 mmHg 92%
    19:00 -2°C° 0.1 mm 3 mps 735 mmHg 92%
    20:00 -2°C° 0.1 mm 3 mps 735 mmHg 92%
    21:00 -2°C° 0.1 mm 3 mps 736 mmHg 92%
    22:00 -2°C° 0.1 mm 3 mps 736 mmHg 92%
    23:00 -2°C° 0.2 mm 3 mps 736 mmHg 92%
    Show more